Weather History for West Palm Beach, FL

Change the Weather History Date:

Sunday, November 7, 2010

  Actual Average Record
Temperature  
Mean Temperature 64 °F 74 °F  
Max Temperature 75 °F 81 °F 89 °F (1958)
Min Temperature 52 °F 67 °F 49 °F (1970)
Degree Days  
Heating Degree Days 1 0  
Month to date heating degree days 9 0  
Since 1 July heating degree days 9 1  
Cooling Degree Days 0 9  
Month to date cooling degree days 60 68  
Year to date cooling degree days 3828 3689  
Growing Degree Days 12 (Base 50)    
Moisture  
Dew Point 48 °F    
Average Humidity 67    
Maximum Humidity 84    
Minimum Humidity 49    
Precipitation  
Precipitation T in 0.18 in 5.33 in (1972)
Month to date precipitation 0.97 1.21  
Year to date precipitation 51.68 55.41  
Snow  
Snow 0.00 in - - ()
Month to date snowfall 0.0  
Since 1 July snowfall 0.0  
Since 1 September snowfall 0.0  
Snow Depth 0.00 in    
Sea Level Pressure  
Sea Level Pressure 30.12 in    
Wind  
Wind Speed 14 mph (NW)    
Max Wind Speed 22 mph    
Max Gust Speed 26 mph    
Visibility 10 miles    
Events      
T = Trace of Precipitation, MM = Missing Value Source: NWS Daily Summary

Daily Weather History Graph

Daily Weather History Graph

Search for Another Location

Airport:

Trip Planner

Search our weather history database for the weather conditions in past years. The results will help you decide how hot, cold, wet, or windy it might be!

Date:

Astronomy

Nov. 07, 2010 Rise Set
Actual Time 6:33 AM EST 5:33 PM EST
Civil Twilight 6:09 AM EST 5:57 PM EST
Nautical Twilight 5:42 AM EST 6:25 PM EST
Astronomical Twilight 5:14 AM EST 6:53 PM EST
Moon 8:03 AM EST (11/7) 6:46 PM EST (11/7)
Length of Visible Light 11h 48m
Length of Day
10h 59m
Waxing Crescent, 3% of the Moon is Illuminated
Nov 7
Waxing Crescent
Nov 13
First Quarter
Nov 21
Full
Nov 28
Last Quarter
Dec 5
New

Hourly Weather History & Observations

Time (EST) Temp. Dew Point Humidity Pressure Visibility Wind Dir Wind Speed Gust Speed Precip Events Conditions
12:53 AM 55.0 °F 41.0 °F 59% 30.19 in 10.0 mi NW 17.3 mph - N/A   Partly Cloudy
1:53 AM 54.0 °F 39.0 °F 57% 30.18 in 10.0 mi NW 16.1 mph 23.0 mph N/A   Partly Cloudy
1:53 AM 53.1 °F 36.0 °F 52% 30.16 in 10.0 mi NW 18.4 mph 25.3 mph N/A   Partly Cloudy
2:53 AM 53.1 °F 35.1 °F 50% 30.14 in 10.0 mi NW 16.1 mph - N/A   Partly Cloudy
3:53 AM 52.0 °F 36.0 °F 54% 30.14 in 10.0 mi NW 12.7 mph - N/A   Partly Cloudy
4:53 AM 53.1 °F 37.0 °F 55% 30.14 in 10.0 mi NW 15.0 mph - N/A   Mostly Cloudy
5:53 AM 52.0 °F 37.9 °F 59% 30.14 in 10.0 mi NW 13.8 mph - N/A   Scattered Clouds
6:53 AM 52.0 °F 39.9 °F 63% 30.15 in 10.0 mi NW 12.7 mph - N/A   Scattered Clouds
7:53 AM 55.0 °F 42.1 °F 62% 30.16 in 10.0 mi NNW 15.0 mph - N/A   Scattered Clouds
8:53 AM 59.0 °F 45.0 °F 60% 30.17 in 10.0 mi NNW 15.0 mph - N/A   Mostly Cloudy
9:53 AM 62.1 °F 48.0 °F 60% 30.17 in 10.0 mi NW 13.8 mph - N/A   Overcast
10:53 AM 64.9 °F 48.9 °F 56% 30.16 in 10.0 mi NNW 12.7 mph - N/A   Mostly Cloudy
11:53 AM 73.9 °F 53.1 °F 48% 30.13 in 10.0 mi NNW 17.3 mph 21.9 mph N/A   Mostly Cloudy
12:53 PM 70.0 °F 54.0 °F 57% 30.11 in 10.0 mi NNW 12.7 mph - N/A   Mostly Cloudy
1:53 PM 69.1 °F 53.1 °F 57% 30.09 in 10.0 mi NNW 17.3 mph 24.2 mph N/A   Overcast
2:53 PM 66.9 °F 53.1 °F 61% 30.08 in 10.0 mi NNW 13.8 mph - N/A   Overcast
3:53 PM 66.9 °F 53.1 °F 61% 30.08 in 10.0 mi NNW 12.7 mph - N/A   Overcast
4:53 PM 66.0 °F 55.0 °F 68% 30.07 in 10.0 mi NW 10.4 mph - 0.00 in   Overcast
5:53 PM 66.0 °F 55.9 °F 70% 30.07 in 10.0 mi NW 13.8 mph 19.6 mph N/A   Overcast
6:53 PM 64.9 °F 55.9 °F 73% 30.08 in 10.0 mi NW 11.5 mph - N/A   Overcast
7:53 PM 63.0 °F 57.0 °F 81% 30.09 in 10.0 mi NW 9.2 mph - 0.00 in   Overcast
8:53 PM 64.0 °F 55.9 °F 75% 30.09 in 10.0 mi WNW 11.5 mph - N/A   Overcast
9:53 PM 63.0 °F 55.9 °F 78% 30.09 in 10.0 mi NW 11.5 mph - 0.00 in   Overcast
10:53 PM 63.0 °F 54.0 °F 72% 30.09 in 10.0 mi NW 13.8 mph - N/A   Overcast